Location: Unspecified
(0.0000°N, 0.0000°E)
Time: 09:14:32
(UTC+00:00)

S-56A Canister/Altair - Pass Details

Date: 16 December 2018
Orbit: 633 x 2500 km, 38.9° (Epoch: 24 March)

Event Time Altitude Azimuth Distance (km) Brightness Sun altitude
Rises 08:59:13 0° 326° (NW) 6,076 11.7 41.3°
Reaches altitude 10° 09:03:40 10° 334° (NNW) 5,139 11.4 42.2°
Maximum altitude 09:17:12 39° 37° (NE) 3,224 11.1 45.0°
Drops below altitude 10° 09:28:48 10° 101° (E) 4,461 12.2 47.4°
Sets 09:32:17 0° 108° (ESE) 5,227 12.4 48.1°
